User: anonymous   Login
Location: *
(51.1248°S, 108.4023°W)
Time: 20:11:50
(UTC+00:00)
Language:

OBJECT E - Orbit

View from above orbital plane
View from above orbital plane
View from above satellite
View from above satellite

Ground track
Ground track

The orbit data is extracted from the following two-line orbital elements,

1 44842U 19087E   22016.47472969  .00004532  00000-0  18972-3 0  9990
2 44842  97.4544 176.4155 0012491  85.2541 351.2905 15.23999890117311
Epoch (UTC): 16 January 2022 11:23:36
Eccentricity: 0.0012491
inclination: 97.4544°
perigee height: 485 km
apogee height: 502 km
right ascension of ascending node: 176.4155°
argument of perigee: 85.2541°
revolutions per day: 15.23999890
mean anomaly at epoch: 351.2905°
orbit number at epoch: 11731

The dashed part of the orbit path shows where the satellite is in the earth's shadow,  

DLR